STARLINK-11672 [DTC] (63665 NORAD) Tracking and Keplerian Element Data

This shows tracking and keplerian element data for the satellite.

Feedback or suggestion? Click here.




ElementValue
Catalog63665
NameSTARLINK-11672 [DTC]
Epoch Orbit3823
Epoch Day353.42876119
Epoch Year2025
RAAN41.7785
Inclination43.0006
Eccentricity0.0001822
Argument of Perigee277.8747
Mean Anonmoly82.1914
Mean Motion15.7086697
Decay Rate0.0015727
L11 63665U 25085B 25353.42876119 .00157270 00000+0 12047-2 0 9999
L22 63665 43.0006 41.7785 0001822 277.8747 82.1914 15.70866970 38238



Live tracking and technical data element details for STARLINK-11672 [DTC] (NORAD 63665). STARLINK-11672 [DTC] can be tracked NOW for your location showing map with azimuth and elevation plus other details from your city location.







IsCatalogInMostPopularTable: catalog: 63665, numindb: 2
Update: records affected: 1



GetName: 63665 STARLINK-11672 [DTC]

Hit Count: updated at: Sun, 08 Feb 2026 16:36:39 GMT